• Em Portugal
  • Lista de países
  • Para 7 dias
  • Temperatura da água
  • Mapas de satélite
  • Mapa do tempo
  • Widgets de tempo
  • user-avatar
    Iniciar Sessão

    Previsão horária em Kobdo

    Hoje, 21 Fevereiro, Quarta-feira

    Tempo Temperatura Precipitação Vento Pressão Humidade
    00:00 -23°C° 0 mm 2 m/s 588 mmHg 54%
    01:00 -23°C° 0 mm 2 m/s 588 mmHg 54%
    02:00 -23°C° 0 mm 2 m/s 588 mmHg 54%
    03:00 -23°C° 0 mm 2 m/s 587 mmHg 53%
    04:00 -23°C° 0 mm 2 m/s 587 mmHg 53%
    05:00 -23°C° 0 mm 2 m/s 587 mmHg 53%
    06:00 -23°C° 0 mm 2 m/s 587 mmHg 53%
    07:00 -21°C° 0 mm 2 m/s 588 mmHg 54%
    08:00 -19°C° 0 mm 2 m/s 588 mmHg 55%
    09:00 -18°C° 0 mm 2 m/s 588 mmHg 57%
    10:00 -17°C° 0 mm 2 m/s 588 mmHg 55%
    11:00 -15°C° 0 mm 2 m/s 588 mmHg 53%
    12:00 -13°C° 0 mm 2 m/s 589 mmHg 51%
    13:00 -13°C° 0 mm 2 m/s 588 mmHg 56%
    14:00 -13°C° 0 mm 2 m/s 588 mmHg 60%
    15:00 -12°C° 0 mm 2 m/s 588 mmHg 64%
    16:00 -14°C° 0 mm 2 m/s 587 mmHg 64%
    17:00 -15°C° 0 mm 2 m/s 586 mmHg 65%
    18:00 -17°C° 0 mm 2 m/s 586 mmHg 65%
    19:00 -17°C° 0 mm 2 m/s 586 mmHg 63%
    20:00 -17°C° 0 mm 2 m/s 586 mmHg 61%
    21:00 -17°C° 0 mm 2 m/s 586 mmHg 58%
    22:00 -17°C° 0 mm 2 m/s 585 mmHg 57%
    23:00 -17°C° 0 mm 2 m/s 585 mmHg 55%

    Amanhã, 22 Fevereiro, Quinta-feira

    Tempo Temperatura Precipitação Vento Pressão Humidade
    00:00 -17°C° 0 mm 2 m/s 585 mmHg 53%
    01:00 -17°C° 0 mm 2 m/s 585 mmHg 52%
    02:00 -18°C° 0 mm 3 m/s 584 mmHg 51%
    03:00 -18°C° 0 mm 3 m/s 584 mmHg 50%
    04:00 -17°C° 0 mm 3 m/s 584 mmHg 50%
    05:00 -17°C° 0 mm 3 m/s 584 mmHg 50%
    06:00 -17°C° 0 mm 3 m/s 583 mmHg 50%
    07:00 -16°C° 0 mm 3 m/s 584 mmHg 53%
    08:00 -15°C° 0 mm 3 m/s 584 mmHg 55%
    09:00 -14°C° 0 mm 3 m/s 585 mmHg 57%
    10:00 -13°C° 0 mm 3 m/s 585 mmHg 57%
    11:00 -10°C° 0 mm 3 m/s 585 mmHg 57%
    12:00 -8°C° 0 mm 2 m/s 585 mmHg 57%
    13:00 -8°C° 0 mm 2 m/s 584 mmHg 60%
    14:00 -9°C° 0 mm 3 m/s 584 mmHg 64%
    15:00 -9°C° 0 mm 3 m/s 584 mmHg 68%
    16:00 -9°C° 0 mm 2 m/s 584 mmHg 69%
    17:00 -12°C° 0 mm 2 m/s 583 mmHg 71%
    18:00 -14°C° 0 mm 2 m/s 583 mmHg 73%
    19:00 -14°C° 0 mm 2 m/s 583 mmHg 73%
    20:00 -15°C° 0 mm 2 m/s 583 mmHg 73%
    21:00 -15°C° 0 mm 2 m/s 583 mmHg 73%
    22:00 -15°C° 0 mm 2 m/s 584 mmHg 73%
    23:00 -15°C° 0 mm 2 m/s 584 mmHg 73%

    Depois de amanhã, 23 Fevereiro, Sexta-feira

    Tempo Temperatura Precipitação Vento Pressão Humidade
    00:00 -15°C° 0 mm 2 m/s 584 mmHg 73%
    01:00 -16°C° 0 mm 2 m/s 584 mmHg 72%
    02:00 -16°C° 0 mm 2 m/s 583 mmHg 72%
    03:00 -16°C° 0 mm 2 m/s 583 mmHg 72%
    04:00 -16°C° 0 mm 2 m/s 583 mmHg 72%
    05:00 -16°C° 0 mm 2 m/s 583 mmHg 71%
    06:00 -16°C° 0 mm 2 m/s 583 mmHg 71%
    07:00 -15°C° 0 mm 2 m/s 584 mmHg 72%
    08:00 -14°C° 0 mm 2 m/s 585 mmHg 72%
    09:00 -13°C° 0 mm 2 m/s 586 mmHg 73%
    10:00 -12°C° 0 mm 2 m/s 586 mmHg 70%
    11:00 -10°C° 0 mm 2 m/s 586 mmHg 68%
    12:00 -9°C° 0 mm 2 m/s 587 mmHg 66%
    13:00 -9°C° 0 mm 2 m/s 587 mmHg 67%
    14:00 -9°C° 0 mm 2 m/s 587 mmHg 69%
    15:00 -8°C° 0 mm 2 m/s 587 mmHg 70%
    16:00 -10°C° 0 mm 2 m/s 586 mmHg 71%
    17:00 -13°C° 0 mm 2 m/s 586 mmHg 73%
    18:00 -14°C° 0 mm 2 m/s 586 mmHg 74%
    19:00 -15°C° 0 mm 2 m/s 586 mmHg 73%
    20:00 -15°C° 0 mm 2 m/s 586 mmHg 72%
    21:00 -16°C° 0 mm 2 m/s 586 mmHg 71%
    22:00 -17°C° 0 mm 3 m/s 586 mmHg 68%
    23:00 -17°C° 0 mm 3 m/s 585 mmHg 64%

    24 Fevereiro, Sábado

    Tempo Temperatura Precipitação Vento Pressão Humidade
    00:00 -17°C° 0 mm 3 m/s 585 mmHg 60%
    01:00 -17°C° 0 mm 3 m/s 585 mmHg 57%
    02:00 -17°C° 0 mm 3 m/s 585 mmHg 55%
    03:00 -17°C° 0 mm 3 m/s 585 mmHg 52%
    04:00 -17°C° 0 mm 3 m/s 585 mmHg 51%
    05:00 -17°C° 0 mm 3 m/s 585 mmHg 50%
    06:00 -17°C° 0 mm 3 m/s 585 mmHg 49%
    07:00 -16°C° 0 mm 3 m/s 585 mmHg 50%
    08:00 -15°C° 0 mm 3 m/s 586 mmHg 52%
    09:00 -14°C° 0 mm 3 m/s 586 mmHg 53%
    10:00 -12°C° 0 mm 3 m/s 586 mmHg 55%
    11:00 -10°C° 0 mm 3 m/s 586 mmHg 56%
    12:00 -8°C° 0 mm 3 m/s 586 mmHg 57%
    13:00 -8°C° 0 mm 3 m/s 586 mmHg 60%
    14:00 -8°C° 0 mm 3 m/s 586 mmHg 64%
    15:00 -8°C° 0 mm 3 m/s 586 mmHg 68%
    16:00 -9°C° 0 mm 3 m/s 585 mmHg 69%
    17:00 -12°C° 0 mm 3 m/s 585 mmHg 71%
    18:00 -13°C° 0 mm 3 m/s 584 mmHg 73%
    19:00 -14°C° 0 mm 3 m/s 584 mmHg 74%
    20:00 -14°C° 0 mm 3 m/s 584 mmHg 74%
    21:00 -15°C° 0 mm 3 m/s 584 mmHg 75%
    22:00 -15°C° 0 mm 3 m/s 584 mmHg 75%
    23:00 -15°C° 0 mm 3 m/s 584 mmHg 75%

    25 Fevereiro, Domingo

    Tempo Temperatura Precipitação Vento Pressão Humidade
    00:00 -15°C° 0 mm 3 m/s 584 mmHg 74%
    01:00 -16°C° 0 mm 4 m/s 584 mmHg 74%
    02:00 -16°C° 0 mm 4 m/s 584 mmHg 74%
    03:00 -16°C° 0 mm 4 m/s 584 mmHg 73%
    04:00 -16°C° 0 mm 4 m/s 584 mmHg 73%
    05:00 -16°C° 0 mm 4 m/s 584 mmHg 73%
    06:00 -16°C° 0 mm 4 m/s 584 mmHg 72%
    07:00 -15°C° 0 mm 4 m/s 585 mmHg 72%
    08:00 -13°C° 0 mm 3 m/s 585 mmHg 72%
    09:00 -12°C° 0 mm 3 m/s 586 mmHg 71%
    10:00 -9°C° 0 mm 3 m/s 586 mmHg 68%
    11:00 -8°C° 0 mm 3 m/s 587 mmHg 65%
    12:00 -6°C° 0 mm 3 m/s 587 mmHg 61%
    13:00 -6°C° 0 mm 3 m/s 587 mmHg 63%
    14:00 -6°C° 0 mm 3 m/s 587 mmHg 65%
    15:00 -6°C° 0 mm 3 m/s 587 mmHg 67%
    16:00 -8°C° 0 mm 3 m/s 586 mmHg 69%
    17:00 -10°C° 0 mm 3 m/s 586 mmHg 70%
    18:00 -13°C° 0 mm 3 m/s 586 mmHg 72%
    19:00 -13°C° 0 mm 3 m/s 586 mmHg 72%
    20:00 -14°C° 0 mm 3 m/s 586 mmHg 72%
    21:00 -14°C° 0 mm 3 m/s 586 mmHg 72%
    22:00 -14°C° 0 mm 3 m/s 586 mmHg 70%
    23:00 -15°C° 0 mm 3 m/s 585 mmHg 69%

    26 Fevereiro, Segunda-feira

    Tempo Temperatura Precipitação Vento Pressão Humidade
    00:00 -15°C° 0 mm 3 m/s 585 mmHg 67%
    01:00 -15°C° 0 mm 3 m/s 585 mmHg 67%
    02:00 -15°C° 0 mm 3 m/s 585 mmHg 66%
    03:00 -15°C° 0 mm 3 m/s 585 mmHg 66%
    04:00 -15°C° 0 mm 3 m/s 585 mmHg 66%
    05:00 -15°C° 0 mm 3 m/s 585 mmHg 67%
    06:00 -15°C° 0 mm 3 m/s 585 mmHg 67%
    07:00 -14°C° 0 mm 3 m/s 585 mmHg 67%
    08:00 -13°C° 0 mm 3 m/s 585 mmHg 67%
    09:00 -12°C° 0 mm 3 m/s 586 mmHg 67%
    10:00 -9°C° 0 mm 2 m/s 586 mmHg 65%
    11:00 -7°C° 0 mm 2 m/s 586 mmHg 62%
    12:00 -6°C° 0 mm 2 m/s 586 mmHg 60%
    13:00 -6°C° 0 mm 2 m/s 586 mmHg 63%
    14:00 -6°C° 0 mm 2 m/s 585 mmHg 65%
    15:00 -6°C° 0 mm 2 m/s 585 mmHg 67%
    16:00 -8°C° 0 mm 2 m/s 585 mmHg 70%
    17:00 -9°C° 0 mm 2 m/s 584 mmHg 73%
    18:00 -12°C° 0 mm 2 m/s 584 mmHg 76%
    19:00 -13°C° 0 mm 2 m/s 584 mmHg 76%
    20:00 -13°C° 0 mm 2 m/s 584 mmHg 76%
    21:00 -14°C° 0 mm 2 m/s 584 mmHg 77%
    22:00 -14°C° 0 mm 2 m/s 584 mmHg 76%
    23:00 -15°C° 0 mm 2 m/s 584 mmHg 75%
    Mostrar mais